Time,TemperatureF,DewpointF,PressureIn,WindDirection,WindDirectionDegrees,WindSpeedMPH,WindSpeedGustMPH,Humidity,HourlyPrecipIn,Conditions,Clouds,dailyrainin,SoftwareType,DateUTC
2013-03-09 00:00:00,40.9,33.2,30.13,SSW,200,7.0,7.0,74,0.00,,,0.00,Wunderground v.1.15,2013-03-09 06:00:00,
2013-03-09 00:06:00,40.9,33.2,30.13,South,190,6.0,9.0,74,0.00,,,0.00,Wunderground v.1.15,2013-03-09 06:06:00,
2013-03-09 00:11:00,41.1,33.4,30.13,South,179,6.0,6.0,74,0.00,,,0.00,Wunderground v.1.15,2013-03-09 06:11:00,
2013-03-09 00:17:00,41.0,33.3,30.12,SW,224,5.0,7.0,74,0.00,,,0.00,Wunderground v.1.15,2013-03-09 06:17:00,
2013-03-09 00:22:00,41.0,33.3,30.12,SSW,213,6.0,11.0,74,0.00,,,0.00,Wunderground v.1.15,2013-03-09 06:22:00,
2013-03-09 00:27:00,40.8,33.2,30.12,SSW,202,6.0,11.0,74,0.00,,,0.00,Wunderground v.1.15,2013-03-09 06:27:00,
2013-03-09 00:33:00,40.7,33.1,30.12,SW,227,6.0,12.0,74,0.00,,,0.00,Wunderground v.1.15,2013-03-09 06:33:00,
2013-03-09 00:46:00,41.1,33.4,30.12,SSW,207,8.0,12.0,74,0.00,,,0.00,Wunderground v.1.15,2013-03-09 06:46:00,
2013-03-09 00:52:00,41.5,33.5,30.12,WSW,250,9.0,12.0,73,0.00,,,0.00,Wunderground v.1.15,2013-03-09 06:52:00,
2013-03-09 00:57:00,41.5,33.5,30.12,WSW,251,9.0,12.0,73,0.00,,,0.00,Wunderground v.1.15,2013-03-09 06:57:00,
2013-03-09 01:03:00,41.3,33.6,30.12,WSW,238,8.0,12.0,74,0.00,,,0.00,Wunderground v.1.15,2013-03-09 07:03:00,
2013-03-09 01:08:00,41.1,33.4,30.13,SW,236,8.0,12.0,74,0.00,,,0.00,Wunderground v.1.15,2013-03-09 07:08:00,
2013-03-09 01:14:00,41.1,33.8,30.13,WSW,258,7.0,12.0,75,0.00,,,0.00,Wunderground v.1.15,2013-03-09 07:14:00,
2013-03-09 01:19:00,40.0,33.7,30.13,WSW,248,7.0,12.0,78,0.00,,,0.00,Wunderground v.1.15,2013-03-09 07:19:00,
2013-03-09 01:24:00,39.6,33.9,30.13,WSW,237,7.0,12.0,80,0.00,,,0.01,Wunderground v.1.15,2013-03-09 07:24:00,
2013-03-09 01:30:00,39.4,34.1,30.13,WSW,242,8.0,12.0,81,0.06,,,0.02,Wunderground v.1.15,2013-03-09 07:30:00,
2013-03-09 01:36:00,38.7,34.0,30.14,WSW,258,8.0,12.0,83,0.18,,,0.03,Wunderground v.1.15,2013-03-09 07:36:00,
2013-03-09 01:41:00,38.4,34.3,30.14,WSW,257,7.0,12.0,85,0.21,,,0.05,Wunderground v.1.15,2013-03-09 07:41:00,
2013-03-09 01:46:00,38.2,34.7,30.14,WSW,252,7.0,12.0,87,0.25,,,0.07,Wunderground v.1.15,2013-03-09 07:46:00,
2013-03-09 01:52:00,38.2,35.0,30.13,WSW,244,7.0,12.0,88,0.17,,,0.08,Wunderground v.1.15,2013-03-09 07:52:00,
2013-03-09 01:58:00,37.8,34.6,30.12,SSW,200,5.0,12.0,88,0.11,,,0.09,Wunderground v.1.15,2013-03-09 07:58:00,
2013-03-09 02:03:00,37.7,35.0,30.12,SSW,196,5.0,12.0,90,0.94,,,0.13,Wunderground v.1.15,2013-03-09 08:03:00,
2013-03-09 02:08:00,37.6,34.9,30.11,SSW,200,6.0,12.0,90,0.61,,,0.17,Wunderground v.1.15,2013-03-09 08:08:00,
2013-03-09 02:14:00,37.6,35.2,30.11,WSW,238,5.0,12.0,91,0.32,,,0.19,Wunderground v.1.15,2013-03-09 08:14:00,
2013-03-09 02:20:00,37.6,35.2,30.10,South,188,5.0,5.0,91,0.13,,,0.20,Wunderground v.1.15,2013-03-09 08:20:00,
2013-03-09 02:25:00,37.7,35.3,30.10,WSW,244,5.0,12.0,91,0.14,,,0.21,Wunderground v.1.15,2013-03-09 08:25:00,
2013-03-09 02:31:00,37.9,35.5,30.10,WSW,246,7.0,12.0,91,0.23,,,0.24,Wunderground v.1.15,2013-03-09 08:31:00,
2013-03-09 02:37:00,37.9,35.2,30.09,SSW,207,8.0,12.0,90,0.11,,,0.25,Wunderground v.1.15,2013-03-09 08:37:00,
2013-03-09 02:43:00,37.5,34.8,30.09,SSW,207,7.0,12.0,90,0.05,,,0.25,Wunderground v.1.15,2013-03-09 08:43:00,
2013-03-09 02:48:00,37.4,34.7,30.09,SW,235,8.0,12.0,90,0.04,,,0.25,Wunderground v.1.15,2013-03-09 08:48:00,
2013-03-09 02:54:00,37.8,34.8,30.10,SW,219,8.0,12.0,89,0.00,,,0.25,Wunderground v.1.15,2013-03-09 08:54:00,
2013-03-09 02:59:00,38.1,34.9,30.10,WSW,242,7.0,12.0,88,0.00,,,0.25,Wunderground v.1.15,2013-03-09 08:59:00,
2013-03-09 03:05:00,38.3,34.8,30.10,WSW,249,5.0,12.0,87,0.00,,,0.26,Wunderground v.1.15,2013-03-09 09:05:00,
2013-03-09 03:10:00,38.1,34.6,30.10,WSW,249,3.0,12.0,87,0.00,,,0.26,Wunderground v.1.15,2013-03-09 09:10:00,
2013-03-09 03:16:00,38.1,34.9,30.10,WSW,249,2.0,12.0,88,0.00,,,0.26,Wunderground v.1.15,2013-03-09 09:16:00,
2013-03-09 03:21:00,38.0,34.8,30.10,SW,234,4.0,12.0,88,0.00,,,0.26,Wunderground v.1.15,2013-03-09 09:21:00,
2013-03-09 03:27:00,37.9,34.7,30.10,SSW,194,4.0,12.0,88,0.00,,,0.26,Wunderground v.1.15,2013-03-09 09:27:00,
2013-03-09 03:32:00,38.0,35.0,30.09,South,188,3.0,12.0,89,0.00,,,0.27,Wunderground v.1.15,2013-03-09 09:32:00,
2013-03-09 03:38:00,38.0,34.8,30.09,South,180,4.0,12.0,88,0.09,,,0.28,Wunderground v.1.15,2013-03-09 09:38:00,
2013-03-09 03:43:00,37.9,34.9,30.09,South,183,4.0,12.0,89,0.31,,,0.31,Wunderground v.1.15,2013-03-09 09:43:00,
2013-03-09 03:49:00,37.8,35.1,30.08,South,182,4.0,12.0,90,0.32,,,0.33,Wunderground v.1.15,2013-03-09 09:49:00,
2013-03-09 03:54:00,37.6,35.2,30.08,SSW,196,2.0,12.0,91,0.27,,,0.35,Wunderground v.1.15,2013-03-09 09:54:00,
2013-03-09 04:00:00,37.3,34.9,30.08,SSE,152,1.0,12.0,91,0.20,,,0.37,Wunderground v.1.15,2013-03-09 10:00:00,
2013-03-09 04:05:00,37.0,34.6,30.08,SSW,211,2.0,12.0,91,0.11,,,0.38,Wunderground v.1.15,2013-03-09 10:05:00,
2013-03-09 04:11:00,37.0,34.9,30.08,SSW,208,1.0,12.0,92,0.11,,,0.39,Wunderground v.1.15,2013-03-09 10:11:00,
2013-03-09 04:24:00,37.0,34.9,30.08,SSW,213,2.0,12.0,92,0.11,,,0.42,Wunderground v.1.15,2013-03-09 10:24:00,
2013-03-09 04:30:00,37.0,34.9,30.08,South,182,2.0,12.0,92,0.37,,,0.45,Wunderground v.1.15,2013-03-09 10:30:00,
2013-03-09 04:36:00,37.0,34.9,30.07,SSW,198,3.0,12.0,92,0.25,,,0.48,Wunderground v.1.15,2013-03-09 10:36:00,
2013-03-09 04:42:00,37.0,34.9,30.07,South,186,4.0,12.0,92,0.42,,,0.51,Wunderground v.1.15,2013-03-09 10:42:00,
2013-03-09 04:47:00,37.0,35.2,30.07,South,186,4.0,12.0,93,0.32,,,0.53,Wunderground v.1.15,2013-03-09 10:47:00,
2013-03-09 04:53:00,37.1,35.3,30.07,SSW,195,5.0,12.0,93,0.25,,,0.55,Wunderground v.1.15,2013-03-09 10:53:00,
2013-03-09 04:58:00,37.2,35.4,30.07,SW,230,6.0,12.0,93,0.25,,,0.57,Wunderground v.1.15,2013-03-09 10:58:00,
2013-03-09 05:04:00,37.4,35.6,30.07,SW,222,7.0,12.0,93,0.17,,,0.59,Wunderground v.1.15,2013-03-09 11:04:00,
2013-03-09 05:09:00,37.4,35.6,30.06,SSW,198,8.0,12.0,93,0.32,,,0.61,Wunderground v.1.15,2013-03-09 11:09:00,
2013-03-09 05:14:00,37.4,35.3,30.05,SSW,201,7.0,12.0,92,0.26,,,0.64,Wunderground v.1.15,2013-03-09 11:14:00,
2013-03-09 05:20:00,37.3,35.5,30.05,SW,215,6.0,6.0,93,0.23,,,0.67,Wunderground v.1.15,2013-03-09 11:20:00,
2013-03-09 05:26:00,37.3,35.5,30.06,SW,229,6.0,12.0,93,0.18,,,0.69,Wunderground v.1.15,2013-03-09 11:26:00,
2013-03-09 05:31:00,37.2,35.4,30.05,South,184,6.0,12.0,93,0.21,,,0.71,Wunderground v.1.15,2013-03-09 11:31:00,
2013-03-09 05:37:00,37.3,35.5,30.06,SSW,195,6.0,12.0,93,0.31,,,0.73,Wunderground v.1.15,2013-03-09 11:37:00,
2013-03-09 05:42:00,37.3,35.5,30.05,SW,215,5.0,12.0,93,0.34,,,0.75,Wunderground v.1.15,2013-03-09 11:42:00,
2013-03-09 05:48:00,37.2,35.4,30.05,SSW,192,4.0,12.0,93,0.23,,,0.77,Wunderground v.1.15,2013-03-09 11:48:00,
2013-03-09 05:53:00,37.2,35.4,30.05,SSW,202,5.0,12.0,93,0.23,,,0.79,Wunderground v.1.15,2013-03-09 11:53:00,
2013-03-09 05:59:00,37.2,35.4,30.05,SSW,200,5.0,12.0,93,0.46,,,0.83,Wunderground v.1.15,2013-03-09 11:59:00,
2013-03-09 06:04:00,37.2,35.4,30.05,SSW,213,4.0,12.0,93,0.22,,,0.85,Wunderground v.1.15,2013-03-09 12:04:00,
2013-03-09 06:10:00,37.1,35.3,30.05,SW,219,5.0,12.0,93,0.65,,,0.89,Wunderground v.1.15,2013-03-09 12:10:00,
2013-03-09 06:15:00,37.1,35.5,30.05,SSW,198,5.0,12.0,94,0.29,,,0.93,Wunderground v.1.15,2013-03-09 12:15:00,
2013-03-09 06:21:00,37.0,35.2,30.05,WSW,250,5.0,12.0,93,0.09,,,0.93,Wunderground v.1.15,2013-03-09 12:21:00,
2013-03-09 06:26:00,36.9,35.3,30.05,South,188,7.0,12.0,94,0.21,,,0.95,Wunderground v.1.15,2013-03-09 12:26:00,
2013-03-09 06:33:00,36.9,35.3,30.05,SSW,201,6.0,12.0,94,0.14,,,0.97,Wunderground v.1.15,2013-03-09 12:33:00,
2013-03-09 06:39:00,36.9,35.3,30.05,South,171,5.0,12.0,94,0.09,,,0.97,Wunderground v.1.15,2013-03-09 12:39:00,
2013-03-09 06:45:00,37.1,35.5,30.04,SSW,213,5.0,12.0,94,0.54,,,0.99,Wunderground v.1.15,2013-03-09 12:45:00,
2013-03-09 06:50:00,37.1,35.5,30.04,South,183,6.0,6.0,94,0.38,,,1.01,Wunderground v.1.15,2013-03-09 12:50:00,
2013-03-09 06:56:00,37.0,35.4,30.04,South,184,7.0,12.0,94,0.34,,,1.03,Wunderground v.1.15,2013-03-09 12:56:00,
2013-03-09 07:01:00,37.1,35.5,30.04,SSW,201,7.0,13.0,94,0.36,,,1.07,Wunderground v.1.15,2013-03-09 13:01:00,
2013-03-09 07:07:00,37.0,35.4,30.03,WNW,288,7.0,13.0,94,0.27,,,1.11,Wunderground v.1.15,2013-03-09 13:07:00,
2013-03-09 07:12:00,37.0,35.4,30.03,SSW,198,7.0,12.0,94,0.08,,,1.11,Wunderground v.1.15,2013-03-09 13:12:00,
2013-03-09 07:18:00,37.1,35.5,30.03,SSW,213,7.0,12.0,94,0.05,,,1.11,Wunderground v.1.15,2013-03-09 13:18:00,
2013-03-09 07:23:00,37.1,35.8,30.03,South,184,7.0,12.0,95,0.00,,,1.11,Wunderground v.1.15,2013-03-09 13:23:00,
2013-03-09 07:30:00,37.2,35.9,30.02,SSE,164,6.0,12.0,95,0.00,,,1.12,Wunderground v.1.15,2013-03-09 13:30:00,
2013-03-09 07:36:00,37.2,35.9,30.02,SSE,153,6.0,12.0,95,0.00,,,1.12,Wunderground v.1.15,2013-03-09 13:36:00,
2013-03-09 07:42:00,37.2,35.9,30.02,SE,137,6.0,12.0,95,0.00,,,1.12,Wunderground v.1.15,2013-03-09 13:42:00,
2013-03-09 07:47:00,37.2,35.9,30.02,SSW,192,6.0,12.0,95,0.00,,,1.12,Wunderground v.1.15,2013-03-09 13:47:00,
2013-03-09 07:53:00,37.1,35.8,30.02,SSW,213,5.0,12.0,95,0.00,,,1.12,Wunderground v.1.15,2013-03-09 13:53:00,
2013-03-09 07:58:00,37.3,36.0,30.02,SSW,192,6.0,12.0,95,0.00,,,1.12,Wunderground v.1.15,2013-03-09 13:58:00,
2013-03-09 08:04:00,37.3,35.7,30.02,South,178,6.0,12.0,94,0.00,,,1.12,Wunderground v.1.15,2013-03-09 14:04:00,
2013-03-09 08:09:00,37.3,35.7,30.02,South,178,7.0,12.0,94,0.00,,,1.12,Wunderground v.1.15,2013-03-09 14:09:00,
2013-03-09 08:15:00,37.3,35.7,30.01,South,188,7.0,12.0,94,0.00,,,1.12,Wunderground v.1.15,2013-03-09 14:15:00,
2013-03-09 08:20:00,37.3,35.7,30.01,South,188,6.0,6.0,94,0.00,,,1.12,Wunderground v.1.15,2013-03-09 14:20:00,
2013-03-09 08:26:00,37.3,35.7,30.01,South,190,6.0,12.0,94,0.00,,,1.12,Wunderground v.1.15,2013-03-09 14:26:00,
2013-03-09 08:31:00,37.3,35.7,30.01,SSW,193,5.0,12.0,94,0.00,,,1.12,Wunderground v.1.15,2013-03-09 14:31:00,
2013-03-09 08:37:00,37.3,35.7,30.01,SSW,198,5.0,12.0,94,0.00,,,1.12,Wunderground v.1.15,2013-03-09 14:37:00,
2013-03-09 08:42:00,37.3,35.7,30.00,South,188,6.0,12.0,94,0.00,,,1.12,Wunderground v.1.15,2013-03-09 14:42:00,
2013-03-09 08:47:00,37.4,35.8,30.00,SSW,200,5.0,12.0,94,0.00,,,1.12,Wunderground v.1.15,2013-03-09 14:47:00,
2013-03-09 08:53:00,37.5,35.9,30.00,SSE,153,6.0,12.0,94,0.00,,,1.12,Wunderground v.1.15,2013-03-09 14:53:00,
2013-03-09 08:59:00,37.4,35.8,29.99,South,185,6.0,12.0,94,0.00,,,1.13,Wunderground v.1.15,2013-03-09 14:59:00,
2013-03-09 09:06:00,37.6,36.0,29.99,SSW,201,6.0,12.0,94,0.00,,,1.13,Wunderground v.1.15,2013-03-09 15:06:00,
2013-03-09 09:12:00,37.6,36.0,29.99,SSW,205,6.0,12.0,94,0.00,,,1.13,Wunderground v.1.15,2013-03-09 15:12:00,
2013-03-09 09:18:00,37.9,36.3,29.99,South,185,7.0,12.0,94,0.00,,,1.13,Wunderground v.1.15,2013-03-09 15:18:00,
2013-03-09 09:23:00,37.9,36.3,29.99,South,182,7.0,12.0,94,0.00,,,1.13,Wunderground v.1.15,2013-03-09 15:23:00,
2013-03-09 09:29:00,38.1,36.5,29.98,SW,222,6.0,12.0,94,0.00,,,1.13,Wunderground v.1.15,2013-03-09 15:29:00,
2013-03-09 09:34:00,38.2,36.4,29.98,SW,218,6.0,12.0,93,0.00,,,1.13,Wunderground v.1.15,2013-03-09 15:34:00,
2013-03-09 09:40:00,38.3,36.5,29.97,SSW,206,6.0,12.0,93,0.00,,,1.13,Wunderground v.1.15,2013-03-09 15:40:00,
2013-03-09 09:46:00,38.5,36.7,29.97,South,183,6.0,12.0,93,0.00,,,1.13,Wunderground v.1.15,2013-03-09 15:46:00,
2013-03-09 09:52:00,38.5,36.4,29.97,SSW,198,5.0,12.0,92,0.00,,,1.13,Wunderground v.1.15,2013-03-09 15:52:00,
2013-03-09 09:57:00,38.4,36.3,29.97,South,187,5.0,12.0,92,0.00,,,1.13,Wunderground v.1.15,2013-03-09 15:57:00,
2013-03-09 10:03:00,38.7,36.6,29.97,SSW,204,5.0,12.0,92,0.00,,,1.13,Wunderground v.1.15,2013-03-09 16:03:00,
2013-03-09 10:08:00,38.9,36.8,29.97,SW,224,6.0,12.0,92,0.00,,,1.13,Wunderground v.1.15,2013-03-09 16:08:00,
2013-03-09 10:14:00,38.8,36.7,29.96,SW,216,7.0,12.0,92,0.00,,,1.13,Wunderground v.1.15,2013-03-09 16:14:00,
2013-03-09 10:19:00,38.8,36.7,29.96,SSW,195,7.0,12.0,92,0.00,,,1.13,Wunderground v.1.15,2013-03-09 16:19:00,
2013-03-09 10:25:00,38.9,36.8,29.96,SSW,211,8.0,12.0,92,0.00,,,1.13,Wunderground v.1.15,2013-03-09 16:25:00,
2013-03-09 10:30:00,38.9,36.5,29.95,South,178,9.0,12.0,91,0.00,,,1.13,Wunderground v.1.15,2013-03-09 16:30:00,
2013-03-09 10:37:00,39.0,36.6,29.94,SSW,213,9.0,15.0,91,0.00,,,1.13,Wunderground v.1.15,2013-03-09 16:37:00,
2013-03-09 10:47:00,39.1,36.7,29.94,SW,218,8.0,12.0,91,0.00,,,1.13,Wunderground v.1.15,2013-03-09 16:47:00,
2013-03-09 10:53:00,39.1,36.7,29.94,SSW,205,8.0,12.0,91,0.00,,,1.13,Wunderground v.1.15,2013-03-09 16:53:00,
2013-03-09 11:05:00,39.3,36.9,29.93,SSW,204,8.0,12.0,91,0.00,,,1.13,Wunderground v.1.15,2013-03-09 17:05:00,
2013-03-09 11:11:00,39.6,37.2,29.93,SW,222,7.0,12.0,91,0.00,,,1.13,Wunderground v.1.15,2013-03-09 17:11:00,
2013-03-09 11:16:00,39.8,37.1,29.93,SW,225,8.0,12.0,90,0.00,,,1.13,Wunderground v.1.15,2013-03-09 17:16:00,
2013-03-09 11:22:00,39.8,37.1,29.93,SSW,202,9.0,16.0,90,0.00,,,1.13,Wunderground v.1.15,2013-03-09 17:22:00,
2013-03-09 11:27:00,39.8,36.8,29.93,SW,214,10.0,16.0,89,0.00,,,1.13,Wunderground v.1.15,2013-03-09 17:27:00,
2013-03-09 11:33:00,39.8,37.1,29.93,South,173,10.0,12.0,90,0.00,,,1.13,Wunderground v.1.15,2013-03-09 17:33:00,
2013-03-09 11:38:00,39.8,36.8,29.93,SW,236,9.0,12.0,89,0.00,,,1.13,Wunderground v.1.15,2013-03-09 17:38:00,
2013-03-09 11:44:00,40.2,37.2,29.92,SSW,212,9.0,12.0,89,0.00,,,1.13,Wunderground v.1.15,2013-03-09 17:44:00,
2013-03-09 11:49:00,40.1,36.8,29.92,SSW,198,8.0,12.0,88,0.00,,,1.13,Wunderground v.1.15,2013-03-09 17:49:00,
2013-03-09 11:55:00,40.1,37.1,29.91,SW,223,8.0,12.0,89,0.00,,,1.13,Wunderground v.1.15,2013-03-09 17:55:00,
2013-03-09 12:01:00,40.1,37.1,29.91,SSW,206,7.0,12.0,89,0.00,,,1.13,Wunderground v.1.15,2013-03-09 18:01:00,
2013-03-09 12:07:00,40.3,37.0,29.90,SSW,212,7.0,12.0,88,0.00,,,1.13,Wunderground v.1.15,2013-03-09 18:07:00,
2013-03-09 12:13:00,40.3,37.0,29.90,WSW,237,6.0,12.0,88,0.00,,,1.13,Wunderground v.1.15,2013-03-09 18:13:00,
2013-03-09 12:18:00,40.2,36.9,29.90,South,186,7.0,12.0,88,0.00,,,1.13,Wunderground v.1.15,2013-03-09 18:18:00,
2013-03-09 12:24:00,40.4,36.8,29.90,SW,226,8.0,13.0,87,0.00,,,1.13,Wunderground v.1.15,2013-03-09 18:24:00,
2013-03-09 12:30:00,40.5,36.9,29.89,SW,222,9.0,9.0,87,0.00,,,1.13,Wunderground v.1.15,2013-03-09 18:30:00,
2013-03-09 12:35:00,41.3,37.7,29.88,SSW,209,8.0,12.0,87,0.00,,,1.13,Wunderground v.1.15,2013-03-09 18:35:00,
2013-03-09 12:41:00,41.7,37.5,29.87,SSW,213,8.0,12.0,85,0.00,,,1.13,Wunderground v.1.15,2013-03-09 18:41:00,
2013-03-09 12:46:00,42.3,37.8,29.86,South,173,10.0,14.0,84,0.00,,,1.13,Wunderground v.1.15,2013-03-09 18:46:00,
2013-03-09 12:52:00,42.6,37.8,29.86,SSW,192,11.0,12.0,83,0.00,,,1.13,Wunderground v.1.15,2013-03-09 18:52:00,
2013-03-09 12:57:00,43.1,38.0,29.85,SSW,205,11.0,15.0,82,0.00,,,1.13,Wunderground v.1.15,2013-03-09 18:57:00,
2013-03-09 13:03:00,43.5,38.1,29.85,SSE,153,12.0,14.0,81,0.00,,,1.13,Wunderground v.1.15,2013-03-09 19:03:00,
2013-03-09 13:08:00,43.4,37.6,29.85,SW,215,11.0,14.0,80,0.00,,,1.13,Wunderground v.1.15,2013-03-09 19:08:00,
2013-03-09 13:14:00,43.4,37.6,29.84,SW,225,10.0,15.0,80,0.00,,,1.13,Wunderground v.1.15,2013-03-09 19:14:00,
2013-03-09 13:20:00,43.3,37.9,29.84,SSW,213,11.0,11.0,81,0.00,,,1.13,Wunderground v.1.15,2013-03-09 19:20:00,
2013-03-09 13:25:00,43.4,38.0,29.83,SW,236,11.0,19.0,81,0.00,,,1.13,Wunderground v.1.15,2013-03-09 19:25:00,
2013-03-09 13:31:00,43.7,38.3,29.82,SSW,200,11.0,12.0,81,0.00,,,1.13,Wunderground v.1.15,2013-03-09 19:31:00,
2013-03-09 13:37:00,44.3,38.5,29.82,SSW,206,10.0,12.0,80,0.00,,,1.13,Wunderground v.1.15,2013-03-09 19:37:00,
2013-03-09 13:42:00,45.0,38.9,29.81,SW,220,10.0,13.0,79,0.00,,,1.13,Wunderground v.1.15,2013-03-09 19:42:00,
2013-03-09 13:48:00,45.2,39.1,29.80,SSW,206,10.0,13.0,79,0.00,,,1.13,Wunderground v.1.15,2013-03-09 19:48:00,
2013-03-09 13:53:00,45.6,39.1,29.80,SW,223,11.0,15.0,78,0.00,,,1.13,Wunderground v.1.15,2013-03-09 19:53:00,
2013-03-09 14:08:00,45.6,38.8,29.80,South,173,10.0,12.0,77,0.00,,,1.13,Wunderground v.1.15,2013-03-09 20:08:00,
2013-03-09 14:14:00,45.7,38.9,29.79,South,189,10.0,15.0,77,0.00,,,1.13,Wunderground v.1.15,2013-03-09 20:14:00,
2013-03-09 14:20:00,45.8,39.3,29.78,SW,222,10.0,12.0,78,0.00,,,1.13,Wunderground v.1.15,2013-03-09 20:20:00,
2013-03-09 14:25:00,46.3,39.5,29.78,SSW,203,9.0,12.0,77,0.00,,,1.13,Wunderground v.1.15,2013-03-09 20:25:00,
2013-03-09 14:31:00,46.3,39.5,29.78,SSW,207,8.0,12.0,77,0.00,,,1.13,Wunderground v.1.15,2013-03-09 20:31:00,
2013-03-09 14:37:00,46.1,39.3,29.78,SW,215,8.0,12.0,77,0.00,,,1.13,Wunderground v.1.15,2013-03-09 20:37:00,
2013-03-09 14:42:00,46.6,39.8,29.78,South,183,8.0,12.0,77,0.00,,,1.13,Wunderground v.1.15,2013-03-09 20:42:00,
2013-03-09 14:48:00,46.6,39.4,29.78,SSW,198,7.0,12.0,76,0.00,,,1.13,Wunderground v.1.15,2013-03-09 20:48:00,
2013-03-09 14:53:00,46.0,39.2,29.78,SW,228,7.0,12.0,77,0.00,,,1.13,Wunderground v.1.15,2013-03-09 20:53:00,
2013-03-09 14:59:00,46.1,39.6,29.77,South,169,7.0,12.0,78,0.00,,,1.13,Wunderground v.1.15,2013-03-09 20:59:00,
2013-03-09 15:04:00,46.2,39.7,29.77,South,172,6.0,12.0,78,0.00,,,1.13,Wunderground v.1.15,2013-03-09 21:04:00,
2013-03-09 15:10:00,46.7,39.9,29.77,South,185,5.0,5.0,77,0.00,,,1.13,Wunderground v.1.15,2013-03-09 21:10:00,
2013-03-09 15:15:00,46.9,40.1,29.77,SSW,209,5.0,12.0,77,0.00,,,1.13,Wunderground v.1.15,2013-03-09 21:15:00,
2013-03-09 15:21:00,47.0,39.8,29.77,SW,221,7.0,12.0,76,0.00,,,1.13,Wunderground v.1.15,2013-03-09 21:21:00,
2013-03-09 15:26:00,46.4,39.6,29.77,SSW,205,7.0,12.0,77,0.00,,,1.13,Wunderground v.1.15,2013-03-09 21:26:00,
2013-03-09 15:32:00,46.1,39.6,29.77,South,178,6.0,12.0,78,0.00,,,1.13,Wunderground v.1.15,2013-03-09 21:32:00,
2013-03-09 15:38:00,45.9,39.8,29.76,SSW,192,6.0,12.0,79,0.00,,,1.13,Wunderground v.1.15,2013-03-09 21:38:00,
2013-03-09 15:43:00,46.5,40.3,29.76,SW,227,4.0,12.0,79,0.00,,,1.13,Wunderground v.1.15,2013-03-09 21:43:00,
2013-03-09 15:50:00,47.0,40.5,29.76,SSW,194,3.0,12.0,78,0.00,,,1.13,Wunderground v.1.15,2013-03-09 21:50:00,
2013-03-09 16:05:00,48.0,40.8,29.76,South,178,3.0,12.0,76,0.00,,,1.13,Wunderground v.1.15,2013-03-09 22:05:00,
2013-03-09 16:11:00,48.1,40.5,29.75,South,179,2.0,12.0,75,0.00,,,1.13,Wunderground v.1.15,2013-03-09 22:11:00,
2013-03-09 16:16:00,48.0,40.5,29.76,SW,223,2.0,12.0,75,0.00,,,1.13,Wunderground v.1.15,2013-03-09 22:16:00,
2013-03-09 16:22:00,48.1,40.5,29.75,SSW,200,2.0,12.0,75,0.00,,,1.13,Wunderground v.1.15,2013-03-09 22:22:00,
2013-03-09 16:27:00,48.3,40.7,29.75,South,184,2.0,12.0,75,0.00,,,1.13,Wunderground v.1.15,2013-03-09 22:27:00,
2013-03-09 16:33:00,48.3,40.4,29.75,SSW,198,2.0,12.0,74,0.00,,,1.13,Wunderground v.1.15,2013-03-09 22:33:00,
2013-03-09 16:38:00,48.1,40.5,29.75,South,186,2.0,12.0,75,0.00,,,1.13,Wunderground v.1.15,2013-03-09 22:38:00,
2013-03-09 16:44:00,48.2,40.6,29.75,South,175,3.0,12.0,75,0.00,,,1.13,Wunderground v.1.15,2013-03-09 22:44:00,
2013-03-09 16:49:00,48.1,40.2,29.75,SSE,164,3.0,12.0,74,0.00,,,1.13,Wunderground v.1.15,2013-03-09 22:49:00,
2013-03-09 16:55:00,47.8,39.9,29.74,SSW,198,2.0,12.0,74,0.00,,,1.13,Wunderground v.1.15,2013-03-09 22:55:00,
2013-03-09 17:01:00,47.6,40.1,29.74,SSW,206,2.0,12.0,75,0.00,,,1.13,Wunderground v.1.15,2013-03-09 23:01:00,
2013-03-09 17:07:00,47.4,39.9,29.74,SSW,193,2.0,12.0,75,0.00,,,1.13,Wunderground v.1.15,2013-03-09 23:07:00,
2013-03-09 17:13:00,47.5,40.0,29.74,SSW,204,2.0,12.0,75,0.00,,,1.13,Wunderground v.1.15,2013-03-09 23:13:00,
2013-03-09 17:18:00,47.8,40.3,29.74,SW,225,3.0,12.0,75,0.00,,,1.13,Wunderground v.1.15,2013-03-09 23:18:00,
2013-03-09 17:24:00,48.1,40.2,29.74,SSW,202,3.0,12.0,74,0.00,,,1.13,Wunderground v.1.15,2013-03-09 23:24:00,
2013-03-09 17:29:00,48.1,39.9,29.74,SSW,196,2.0,12.0,73,0.00,,,1.13,Wunderground v.1.15,2013-03-09 23:29:00,
2013-03-09 17:35:00,48.2,39.9,29.74,SSW,202,1.0,12.0,73,0.00,,,1.13,Wunderground v.1.15,2013-03-09 23:35:00,
2013-03-09 17:40:00,47.9,39.3,29.74,SW,218,1.0,12.0,72,0.00,,,1.13,Wunderground v.1.15,2013-03-09 23:40:00,
2013-03-09 17:46:00,47.7,39.8,29.74,SW,218,1.0,12.0,74,0.00,,,1.13,Wunderground v.1.15,2013-03-09 23:46:00,
2013-03-09 17:51:00,47.9,40.0,29.74,SW,219,1.0,12.0,74,0.00,,,1.13,Wunderground v.1.15,2013-03-09 23:51:00,
2013-03-09 17:57:00,47.8,39.9,29.73,SSW,213,1.0,12.0,74,0.00,,,1.13,Wunderground v.1.15,2013-03-09 23:57:00,
2013-03-09 18:03:00,47.9,39.7,29.73,South,187,2.0,12.0,73,0.00,,,1.13,Wunderground v.1.15,2013-03-10 00:03:00,
2013-03-09 18:09:00,48.3,40.0,29.73,SSW,212,3.0,12.0,73,0.00,,,1.13,Wunderground v.1.15,2013-03-10 00:09:00,
2013-03-09 18:14:00,48.4,40.1,29.73,SSW,200,2.0,12.0,73,0.00,,,1.13,Wunderground v.1.15,2013-03-10 00:14:00,
2013-03-09 18:20:00,48.6,40.0,29.73,SSW,210,4.0,12.0,72,0.00,,,1.13,Wunderground v.1.15,2013-03-10 00:20:00,
2013-03-09 18:26:00,48.1,39.1,29.73,SW,220,5.0,12.0,71,0.00,,,1.13,Wunderground v.1.15,2013-03-10 00:26:00,
2013-03-09 18:32:00,47.8,39.2,29.73,SW,217,5.0,12.0,72,0.00,,,1.13,Wunderground v.1.15,2013-03-10 00:32:00,
2013-03-09 18:37:00,47.5,38.9,29.73,SW,233,6.0,12.0,72,0.00,,,1.13,Wunderground v.1.15,2013-03-10 00:37:00,
2013-03-09 18:43:00,47.3,38.7,29.73,SW,223,6.0,12.0,72,0.00,,,1.13,Wunderground v.1.15,2013-03-10 00:43:00,
2013-03-09 18:48:00,47.1,38.9,29.73,SSW,209,6.0,12.0,73,0.00,,,1.13,Wunderground v.1.15,2013-03-10 00:48:00,
2013-03-09 18:54:00,47.4,39.5,29.73,SSW,209,5.0,12.0,74,0.00,,,1.13,Wunderground v.1.15,2013-03-10 00:54:00,
2013-03-09 19:00:00,48.2,39.6,29.73,South,191,3.0,3.0,72,0.00,,,1.13,Wunderground v.1.15,2013-03-10 01:00:00,
2013-03-09 19:05:00,48.6,40.0,29.72,SSW,200,2.0,12.0,72,0.00,,,1.13,Wunderground v.1.15,2013-03-10 01:05:00,
2013-03-09 19:11:00,49.0,40.0,29.72,SSW,198,3.0,5.0,71,0.00,,,1.13,Wunderground v.1.15,2013-03-10 01:11:00,
2013-03-09 19:16:00,49.1,39.7,29.72,SSW,198,4.0,12.0,70,0.00,,,1.13,Wunderground v.1.15,2013-03-10 01:16:00,
2013-03-09 19:22:00,49.4,40.0,29.73,SSW,200,5.0,12.0,70,0.00,,,1.13,Wunderground v.1.15,2013-03-10 01:22:00,
2013-03-09 19:27:00,49.3,39.9,29.73,SSW,199,4.0,12.0,70,0.00,,,1.13,Wunderground v.1.15,2013-03-10 01:27:00,
2013-03-09 19:32:00,49.1,39.4,29.73,South,189,4.0,12.0,69,0.00,,,1.13,Wunderground v.1.15,2013-03-10 01:32:00,
2013-03-09 19:38:00,47.8,38.8,29.73,SSW,206,5.0,12.0,71,0.00,,,1.13,Wunderground v.1.15,2013-03-10 01:38:00,
2013-03-09 19:44:00,47.4,39.2,29.73,SSW,199,4.0,12.0,73,0.00,,,1.13,Wunderground v.1.15,2013-03-10 01:44:00,
2013-03-09 19:49:00,47.8,39.2,29.73,SSW,198,3.0,12.0,72,0.00,,,1.13,Wunderground v.1.15,2013-03-10 01:49:00,
2013-03-09 19:55:00,47.6,39.4,29.72,SSW,205,2.0,12.0,73,0.00,,,1.13,Wunderground v.1.15,2013-03-10 01:55:00,
2013-03-09 20:00:00,47.9,39.3,29.72,South,187,1.0,12.0,72,0.00,,,1.13,Wunderground v.1.15,2013-03-10 02:00:00,
2013-03-09 20:06:00,48.4,39.8,29.72,SSW,198,2.0,12.0,72,0.00,,,1.13,Wunderground v.1.15,2013-03-10 02:06:00,
2013-03-09 20:11:00,48.8,39.8,29.71,SSW,197,2.0,12.0,71,0.00,,,1.13,Wunderground v.1.15,2013-03-10 02:11:00,
2013-03-09 20:17:00,48.8,39.8,29.71,SSW,196,1.0,12.0,71,0.00,,,1.13,Wunderground v.1.15,2013-03-10 02:17:00,
2013-03-09 20:23:00,48.8,39.8,29.71,South,185,1.0,12.0,71,0.00,,,1.13,Wunderground v.1.15,2013-03-10 02:23:00,
2013-03-09 20:29:00,48.7,39.7,29.71,SSW,202,1.0,12.0,71,0.00,,,1.13,Wunderground v.1.15,2013-03-10 02:29:00,
2013-03-09 20:34:00,48.8,39.8,29.71,SSW,205,1.0,12.0,71,0.00,,,1.13,Wunderground v.1.15,2013-03-10 02:34:00,
2013-03-09 20:40:00,48.4,39.1,29.71,SSW,205,1.0,1.0,70,0.00,,,1.13,Wunderground v.1.15,2013-03-10 02:40:00,
2013-03-09 20:46:00,48.2,39.6,29.71,SSW,209,1.0,12.0,72,0.00,,,1.13,Wunderground v.1.15,2013-03-10 02:46:00,
2013-03-09 20:51:00,48.5,39.5,29.71,SSW,209,1.0,12.0,71,0.00,,,1.13,Wunderground v.1.15,2013-03-10 02:51:00,
2013-03-09 20:57:00,48.5,39.5,29.71,SSW,212,0.0,12.0,71,0.00,,,1.13,Wunderground v.1.15,2013-03-10 02:57:00,
2013-03-09 21:03:00,48.7,39.4,29.71,SSW,209,1.0,12.0,70,0.00,,,1.13,Wunderground v.1.15,2013-03-10 03:03:00,
2013-03-09 21:08:00,48.5,38.8,29.71,SSW,213,2.0,12.0,69,0.00,,,1.13,Wunderground v.1.15,2013-03-10 03:08:00,
2013-03-09 21:14:00,48.0,38.7,29.71,SW,217,4.0,12.0,70,0.00,,,1.13,Wunderground v.1.15,2013-03-10 03:14:00,
2013-03-09 21:19:00,48.1,38.8,29.71,SW,227,5.0,12.0,70,0.00,,,1.13,Wunderground v.1.15,2013-03-10 03:19:00,
2013-03-09 21:25:00,48.6,38.9,29.72,SW,236,4.0,12.0,69,0.00,,,1.13,Wunderground v.1.15,2013-03-10 03:25:00,
2013-03-09 21:30:00,49.3,39.2,29.73,NE,40,3.0,12.0,68,0.00,,,1.13,Wunderground v.1.15,2013-03-10 03:30:00,
2013-03-09 21:36:00,46.8,37.9,29.73,NE,53,5.0,12.0,71,0.00,,,1.13,Wunderground v.1.15,2013-03-10 03:36:00,
2013-03-09 21:42:00,44.9,37.8,29.74,East,84,5.0,12.0,76,0.00,,,1.13,Wunderground v.1.15,2013-03-10 03:42:00,
2013-03-09 21:47:00,45.1,38.0,29.73,SE,132,4.0,12.0,76,0.00,,,1.13,Wunderground v.1.15,2013-03-10 03:47:00,
2013-03-09 21:53:00,46.3,39.1,29.74,NW,311,4.0,12.0,76,0.00,,,1.13,Wunderground v.1.15,2013-03-10 03:53:00,
2013-03-09 21:59:00,46.8,39.3,29.74,ENE,70,4.0,12.0,75,0.00,,,1.13,Wunderground v.1.15,2013-03-10 03:59:00,
2013-03-09 22:05:00,46.6,39.4,29.74,ENE,62,3.0,12.0,76,0.00,,,1.13,Wunderground v.1.15,2013-03-10 04:05:00,
2013-03-09 22:10:00,45.9,39.1,29.75,North,5,3.0,3.0,77,0.00,,,1.13,Wunderground v.1.15,2013-03-10 04:10:00,
2013-03-09 22:15:00,44.4,38.0,29.76,NE,56,4.0,12.0,78,0.00,,,1.13,Wunderground v.1.15,2013-03-10 04:15:00,
2013-03-09 22:21:00,42.9,37.8,29.75,ENE,60,4.0,12.0,82,0.00,,,1.13,Wunderground v.1.15,2013-03-10 04:21:00,
2013-03-09 22:26:00,42.2,37.7,29.76,NNW,348,3.0,12.0,84,0.00,,,1.13,Wunderground v.1.15,2013-03-10 04:26:00,
2013-03-09 22:32:00,41.8,37.9,29.76,East,98,2.0,12.0,86,0.00,,,1.13,Wunderground v.1.15,2013-03-10 04:32:00,
2013-03-09 22:37:00,41.6,38.0,29.76,ENE,57,1.0,12.0,87,0.00,,,1.13,Wunderground v.1.15,2013-03-10 04:37:00,
2013-03-09 22:50:00,41.0,37.7,29.76,NNW,338,2.0,12.0,88,0.00,,,1.13,Wunderground v.1.15,2013-03-10 04:50:00,
2013-03-09 22:55:00,40.7,37.7,29.76,NE,46,2.0,12.0,89,0.21,,,1.15,Wunderground v.1.15,2013-03-10 04:55:00,
2013-03-09 23:00:00,40.7,38.0,29.76,ENE,57,4.0,12.0,90,0.08,,,1.15,Wunderground v.1.15,2013-03-10 05:00:00,
2013-03-09 23:01:00,40.6,37.9,29.76,ENE,62,5.0,12.0,90,0.07,,,1.16,Wunderground v.1.15,2013-03-10 05:01:00,
2013-03-09 23:02:00,40.6,37.9,29.76,ENE,62,5.0,12.0,90,0.07,,,1.16,Wunderground v.1.15,2013-03-10 05:02:00,
2013-03-09 23:07:00,40.6,38.2,29.76,ENE,66,6.0,12.0,91,0.18,,,1.17,Wunderground v.1.15,2013-03-10 05:07:00,
2013-03-09 23:10:00,40.3,37.9,29.76,ENE,66,5.0,12.0,91,0.33,,,1.19,Wunderground v.1.15,2013-03-10 05:10:00,
2013-03-09 23:16:00,40.3,38.2,29.76,NE,56,4.0,12.0,92,0.31,,,1.21,Wunderground v.1.15,2013-03-10 05:16:00,
2013-03-09 23:21:00,40.4,38.3,29.76,ENE,67,4.0,12.0,92,0.52,,,1.24,Wunderground v.1.15,2013-03-10 05:21:00,
2013-03-09 23:27:00,40.2,38.1,29.75,ENE,57,4.0,12.0,92,0.18,,,1.26,Wunderground v.1.15,2013-03-10 05:27:00,
2013-03-09 23:32:00,40.3,38.4,29.75,ENE,65,4.0,12.0,93,0.12,,,1.27,Wunderground v.1.15,2013-03-10 05:32:00,
2013-03-09 23:38:00,40.1,38.2,29.75,ENE,65,4.0,12.0,93,0.05,,,1.27,Wunderground v.1.15,2013-03-10 05:38:00,
2013-03-09 23:43:00,39.3,37.2,29.75,ENE,65,3.0,12.0,92,0.04,,,1.27,Wunderground v.1.15,2013-03-10 05:43:00,
2013-03-09 23:49:00,38.7,36.9,29.74,ENE,65,3.0,12.0,93,0.00,,,1.28,Wunderground v.1.15,2013-03-10 05:49:00,
2013-03-09 23:54:00,38.4,36.6,29.74,ENE,65,2.0,12.0,93,0.10,,,1.29,Wunderground v.1.15,2013-03-10 05:54:00,